Location: Helstorf
(52.5868°N, 9.5862°E)
Time: 15:20:20
(UTC+00:00)

Cosmos 1634 Rocket - Pass Details

Date: 15 May 2026
Orbit: 960 x 990 km, 82.9° (Epoch: 10 June)

Event Time Altitude Azimuth Distance (km) Brightness Sun altitude
Exits shadow 22:22:34 22° 198° (SSW) 1,978 5.1 -17.4°
Maximum altitude 22:26:46 76° 282° (WNW) 998 4.1 -17.5°
Drops below altitude 10° 22:33:01 10° 8° (N) 2,725 7.4 -17.7°
Sets 22:35:33 0° 10° (N) 3,681 8.3 -17.8°
